Location: Carri�res
(48.9069°N, 2.1792°E)
Time: 19:45:23
(UTC+00:00)

Cosmos 2263 Rocket - Pass Details

Date: 17 January 2021
Orbit: 825 x 847 km, 71.0° (Epoch: 02 March)

Event Time Altitude Azimuth Distance (km) Brightness Sun altitude
Rises 19:49:55 0° 257° (WSW) 3,404 6.3 -33.0°
Reaches altitude 10° 19:53:03 10° 274° (W) 2,470 5.4 -33.5°
Maximum altitude 19:57:08 20° 321° (NW) 1,864 4.4 -34.2°
Enters shadow 19:59:04 17° 347° (NNW) 2,016 4.3 -34.5°
